Weather in Cordova

United States     35°09′20″N   89°46′34″W
temp.,
°C
wind,
m/s
gust,
m/s
humid.,
%
clouds,
%
prec.,
mm/h
press.,
hPa
HPBL,
m
18 may, tue
tue1801:00+19se51492100 2.0 1016626
04:00+19sse51296100 2.1 1016697
07:00+18se71692100 7.5 1017651
10:00+18sse71588100 0.1 1019896
13:00+24sse91166100 0.1 10181259
16:00+24se7106992 0.0 10161273
19:00+22se71377100 0.0 1017786
22:00+20sse71574100 0.0 1018770
19 may, wed
wed1901:00+19sse615815 0.0 1018802
04:00+18se51587100 0.0 1018709
07:00+19se61584100 0.0 1019731
10:00+21sse81674100 0.0 10201098
13:00+24sse91366100 0.0 10201222
16:00+24se81169100 0.0 1018966
19:00+22se6137280 0.1 1019735
22:00+20se4137783 0.1 1019398
20 may, thu
thu2001:00+21sse5147450 0.1 1020527
04:00+19se4138255 0.0 1021455
07:00+19se5138670 0.0 1023520
10:00+23se7107052 0.0 1023773
13:00+27se795812 0.0 10231611
16:00+28se685573 0.0 10212048
19:00+24se4107010 0.0 1021435
22:00+19ese311765 0.0 1023250
21 may, fri
fri2101:00+18se310745 0.0 1023203
04:00+17sse39775 0.0 1025192
07:00+17se3108178 0.0 1026246
10:00+23sse586389 0.0 1027549
13:00+27sse45515 0.0 10271258
16:00+28se445045 0.0 10251755
19:00+25se367013 0.0 1025203
22:00+20sse2268100 0.0 102633
22 may, sat
sat2201:00+19se3669100 0.0 102695
04:00+18sse237274 0.0 102641
07:00+18sse247940 0.0 102788
10:00+25ssw12597 0.0 1028466
13:00+29s22470 0.0 10261640
16:00+30ese12424 0.0 10242048
19:00+27e11600 0.0 102219
22:00+22ese22630 0.0 102317